TimeMST,TemperatureF,Dew PointF,Humidity,Sea Level PressureIn,VisibilityMPH,Wind Direction,Wind SpeedMPH,Gust SpeedMPH,PrecipitationIn,Events,Conditions,WindDirDegrees,DateUTC
12:53 AM,14.0,9.0,80,30.28,10.0,ENE,18.4,-,N/A,,Clear,70,2013-01-23 07:53:00
1:53 AM,12.0,8.1,84,30.31,10.0,ENE,16.1,-,N/A,,Clear,70,2013-01-23 08:53:00
2:53 AM,12.0,7.0,80,30.32,10.0,ENE,16.1,-,N/A,,Clear,70,2013-01-23 09:53:00
3:53 AM,10.9,6.1,81,30.34,10.0,East,13.8,-,N/A,,Clear,80,2013-01-23 10:53:00
4:53 AM,10.0,5.0,80,30.34,10.0,ENE,15.0,-,N/A,,Clear,70,2013-01-23 11:53:00
5:53 AM,10.9,5.0,77,30.35,10.0,East,17.3,-,N/A,,Clear,90,2013-01-23 12:53:00
6:53 AM,10.9,6.1,81,30.36,10.0,East,16.1,-,N/A,,Clear,80,2013-01-23 13:53:00
7:53 AM,9.0,5.0,84,30.34,10.0,ENE,16.1,-,N/A,,Clear,70,2013-01-23 14:53:00
8:53 AM,10.9,6.1,81,30.34,10.0,East,17.3,-,N/A,,Clear,90,2013-01-23 15:53:00
9:53 AM,12.0,6.1,77,30.35,10.0,East,17.3,-,N/A,,Clear,80,2013-01-23 16:53:00
10:53 AM,12.9,7.0,77,30.32,10.0,East,17.3,-,N/A,,Clear,90,2013-01-23 17:53:00
11:53 AM,14.0,7.0,74,30.29,10.0,East,18.4,-,N/A,,Clear,90,2013-01-23 18:53:00
12:53 PM,15.1,8.1,74,30.25,10.0,East,17.3,-,N/A,,Clear,80,2013-01-23 19:53:00
1:53 PM,16.0,10.0,77,30.23,10.0,East,17.3,-,N/A,,Clear,80,2013-01-23 20:53:00
2:53 PM,17.6,10.4,73,30.05,10.0,ENE,15.0,-,N/A,,Clear,70,2013-01-23 21:53:00
3:53 PM,17.1,10.0,74,30.16,10.0,ENE,15.0,-,N/A,,Clear,70,2013-01-23 22:53:00
4:53 PM,14.0,9.0,80,30.18,10.0,East,15.0,-,N/A,,Clear,80,2013-01-23 23:53:00
5:53 PM,12.0,7.0,80,30.15,10.0,East,8.1,-,N/A,,Clear,80,2013-01-24 00:53:00
6:53 PM,12.0,7.0,80,30.10,10.0,ENE,10.4,-,N/A,,Clear,70,2013-01-24 01:53:00
7:53 PM,12.0,7.0,80,30.09,10.0,NE,8.1,-,N/A,,Clear,50,2013-01-24 02:53:00
8:53 PM,12.9,8.1,81,30.06,10.0,ENE,4.6,-,N/A,,Mostly Cloudy,70,2013-01-24 03:53:00
9:53 PM,12.9,7.0,77,30.03,10.0,Calm,Calm,-,N/A,,Overcast,0,2013-01-24 04:53:00
10:53 PM,12.0,7.0,80,30.01,10.0,Calm,Calm,-,N/A,,Clear,0,2013-01-24 05:53:00
11:53 PM,12.0,8.1,84,29.99,10.0,Calm,Calm,-,N/A,,Clear,0,2013-01-24 06:53:00